Sigfox identifier Datetime Temperature Humidity SNR
003C0FDE 2018-10-09 09:00:52 20.4 38 18.9
003C0FDE 2018-10-09 07:57:05 20.4 38 18.8
003C0FDE 2018-10-09 06:53:16 20.4 38 18.9
003C0FDE 2018-10-09 05:49:27 20.4 38 18.9
003C0FDE 2018-10-09 04:45:40 20.4 38 18.8
003C0FDE 2018-10-09 01:34:15 20.4 38 18.6
003C0FDE 2018-10-09 00:30:23 20.3 38 18.6
003C0FDE 2018-10-08 23:26:36 20.2 38 18.8
003C0FDE 2018-10-08 22:22:48 20.3 38 18.7
003C0FDE 2018-10-08 21:18:59 20.2 38 18.8
003C0FDE 2018-10-08 20:15:10 20.2 37 18.9
003C0FDE 2018-10-08 19:11:24 20.2 37 18.8
003C0FDE 2018-10-08 18:07:30 20.2 37 18.7
003C0FDE 2018-10-08 17:03:40 20.3 37 18.8
003C0FDE 2018-10-08 14:56:10 20.4 37 18.7
003C0FDE 2018-10-08 13:52:20 20.4 37 18.8
003C0FDE 2018-10-08 12:48:32 20.6 37 19
003C0FDE 2018-10-08 10:40:54 20.4 36 18.9
003C0FDE 2018-10-08 08:33:14 20.4 36 19
003C0FDE 2018-10-08 07:29:30 20.5 37 18.9
003C0FDE 2018-10-08 06:25:42 20.5 37 18.8
003C0FDE 2018-10-08 05:21:48 20.5 37 18.8
003C0FDE 2018-10-08 04:17:56 20.6 37 16
003C0FDE 2018-10-08 03:14:09 20.6 38 16
003C0FDE 2018-10-08 02:10:23 20.6 38 15.9
003C0FDE 2018-10-08 01:06:34 20.6 38 16.1
003C0FDE 2018-10-08 00:02:43 20.6 38 16.2
003C0FDE 2018-10-07 22:58:54 20.6 39 16.5
003C0FDE 2018-10-07 21:55:02 20.6 39 16.2
003C0FDE 2018-10-07 20:51:12 20.6 39 16.5
003C0FDE 2018-10-07 19:47:23 20.6 39 16.5
003C0FDE 2018-10-07 18:43:33 20.6 39 16.5
003C0FDE 2018-10-07 17:39:41 20.7 39 16.2
003C0FDE 2018-10-07 16:35:51 20.7 39 16.3
003C0FDE 2018-10-07 15:32:02 20.6 39 16.2
003C0FDE 2018-10-07 14:28:15 20.7 39 16.2
003C0FDE 2018-10-07 13:24:27 20.7 39 16.5
003C0FDE 2018-10-07 12:20:40 20.8 39 16.6
003C0FDE 2018-10-07 11:16:53 20.7 39 16.5
003C0FDE 2018-10-07 10:13:06 20.8 40 16.6
003C0FDE 2018-10-07 09:09:17 20.8 40 16.6
003C0FDE 2018-10-07 08:05:30 20.8 40 16.6
003C0FDE 2018-10-07 07:01:44 20.8 40 16.6
003C0FDE 2018-10-07 05:57:54 20.8 40 16.7
003C0FDE 2018-10-07 04:54:09 20.8 40 16.7
003C0FDE 2018-10-07 03:50:19 20.8 40 16.8
003C0FDE 2018-10-07 02:46:26 20.8 40 16.7
003C0FDE 2018-10-07 01:42:37 20.9 40 16.7
003C0FDE 2018-10-07 00:38:47 20.8 40 16.8
003C0FDE 2018-10-06 23:34:58 20.9 41 17.1
003C0FDE 2018-10-06 22:31:07 20.9 41 16.9
003C0FDE 2018-10-06 21:27:17 20.9 41 17.1
003C0FDE 2018-10-06 20:23:25 20.9 41 16.8
003C0FDE 2018-10-06 19:19:34 21 41 16.9
003C0FDE 2018-10-06 18:15:43 21 41 16.7
003C0FDE 2018-10-06 17:11:52 21 41 16.9
003C0FDE 2018-10-06 16:08:03 21 41 16.9
003C0FDE 2018-10-06 15:04:17 21 41 17
003C0FDE 2018-10-06 14:00:29 21 41 17
003C0FDE 2018-10-06 12:56:36 21 41 16.9
003C0FDE 2018-10-06 11:52:49 21 41 16.8
003C0FDE 2018-10-06 10:49:02 21 41 16.6
003C0FDE 2018-10-06 09:45:12 21 41 16.6
003C0FDE 2018-10-06 08:41:22 21 42 16.6
003C0FDE 2018-10-06 07:37:36 21 42 16.6
003C0FDE 2018-10-06 06:33:48 21.1 42 16.5
003C0FDE 2018-10-06 05:30:00 21.1 42 16.4
003C0FDE 2018-10-06 04:26:12 21.2 43 16.7
003C0FDE 2018-10-06 03:22:19 21.2 43 16.3
003C0FDE 2018-10-06 02:18:29 21.2 43 16.5
003C0FDE 2018-10-06 01:14:40 21.3 43 16.5
003C0FDE 2018-10-06 00:10:52 21.3 44 16.9
003C0FDE 2018-10-05 23:07:00 21.3 44 16.6
003C0FDE 2018-10-05 22:03:08 21.4 44 16.6
003C0FDE 2018-10-05 20:59:21 21.4 45 16.1
003C0FDE 2018-10-05 19:55:28 21.4 45 16
003C0FDE 2018-10-05 18:51:39 21.5 45 14.7
003C0FDE 2018-10-05 17:47:49 21.5 46 15.6
003C0FDE 2018-10-05 16:44:00 21.7 47 16.5
003C0FDE 2018-10-05 15:40:08 21.7 48 18.6
003C0FDE 2018-10-05 14:36:16 21.8 57 0